Regional Weather Roundup
Issued by NWS Goodland, KS

Home | Current Version | Previous Version | Graphics & Text | Print | Product List | Glossary On
Versions: 1 2 3 4 5 6 7 8 9 10 11 12 13 14 15 16 17 18 19 20 21 22 23 24 25 26 27 28 29 30 31 32 33 34 35 36 37 38 39 40 41 42 43 44 45 46 47 48 49 50
000
ASUS43 KGLD 110959
RWRGLD

GOODLAND FORECAST AREA HOURLY WEATHER ROUNDUP
NATIONAL WEATHER SERVICE GOODLAND KS
400 AM MDT FRI JUL 11 2014

...OFFICIAL OBSERVATIONS...

CITY           SKY/WX    TMP DP  RH WIND       PRES   REMARKS
GOODLAND KS    PTCLDY    71  53  52 S15       29.96S
HILL CITY KS   CLEAR     70  68  93 SE5       29.94S
IMPERIAL NEB   CLOUDY    71  68  90 NE7       29.97S
MCCOOK NEB     CLOUDY    71  68  90 E9        29.95F
AKRON CO       CLOUDY    65  62  90 NE15      30.03R
BURLINGTON CO  CLEAR     70  51  51 S15       29.97F
LIMON CO       MOCLDY    64  57  78 NW13      30.09R
$$

...UNOFFICIAL OBSERVATIONS...

CITY           SKY/WX    TMP DP  RH WIND       PRES   REMARKS
COLBY KS       CLEAR     73  59  60 S7        29.95S
GOVE KS          N/A     70  32  24 CALM        N/A
LENORA KS        N/A     68  32  26 MISG        N/A
NORTON KS      CLEAR     68  64  88 SE7       29.93S
SHARON SPRINGS   N/A     73  53  48 S12         N/A
WAKEENEY KS      N/A     70  64  80 MISG        N/A
YUMA CO          N/A     68  64  85 NE12        N/A
$$



USA.gov is the U.S. government's official web portal to all federal, state and local government web resources and services.